Hourly Weather Rzeczyca

Today, 28 September, Monday

Time Temperature Precipitation Wind Pressure Humidity
00:00 +8°C° 0 mm 2 mps 744 mmHg 83%
01:00 +7°C° 0 mm 2 mps 744 mmHg 84%
02:00 +7°C° 0 mm 2 mps 744 mmHg 84%
03:00 +7°C° 0 mm 2 mps 744 mmHg 83%
04:00 +7°C° 0 mm 2 mps 744 mmHg 82%
05:00 +8°C° 0 mm 2 mps 745 mmHg 81%
06:00 +8°C° 0 mm 2 mps 745 mmHg 79%
07:00 +8°C° 0 mm 3 mps 746 mmHg 76%
08:00 +10°C° 0 mm 3 mps 745 mmHg 71%
09:00 +12°C° 0 mm 3 mps 745 mmHg 66%
10:00 +14°C° 0 mm 4 mps 745 mmHg 61%
11:00 +15°C° 0 mm 4 mps 745 mmHg 59%
12:00 +15°C° 0 mm 4 mps 745 mmHg 56%
13:00 +17°C° 0 mm 4 mps 745 mmHg 56%
14:00 +15°C° 0 mm 4 mps 744 mmHg 58%
15:00 +15°C° 0 mm 5 mps 744 mmHg 61%
16:00 +15°C° 0 mm 5 mps 744 mmHg 63%
17:00 +14°C° 0 mm 4 mps 744 mmHg 67%
18:00 +14°C° 0 mm 4 mps 744 mmHg 70%
19:00 +14°C° 0 mm 4 mps 744 mmHg 74%
20:00 +14°C° 0 mm 4 mps 744 mmHg 76%
21:00 +13°C° 0 mm 3 mps 744 mmHg 78%
22:00 +13°C° 0 mm 3 mps 744 mmHg 80%
23:00 +13°C° 0 mm 3 mps 744 mmHg 83%

Tomorrow, 29 September, Tuesday

Time Temperature Precipitation Wind Pressure Humidity
00:00 +13°C° 0 mm 2 mps 744 mmHg 85%
01:00 +12°C° 0 mm 2 mps 743 mmHg 88%
02:00 +12°C° 0.1 mm 2 mps 743 mmHg 87%
03:00 +12°C° 0.1 mm 2 mps 743 mmHg 87%
04:00 +12°C° 0.1 mm 2 mps 743 mmHg 86%
05:00 +12°C° 0 mm 2 mps 743 mmHg 86%
06:00 +12°C° 0 mm 2 mps 743 mmHg 85%
07:00 +13°C° 0 mm 1 mps 743 mmHg 85%
08:00 +14°C° 0 mm 1 mps 743 mmHg 81%
09:00 +15°C° 0 mm 1 mps 743 mmHg 76%
10:00 +16°C° 0 mm 1 mps 743 mmHg 72%
11:00 +18°C° 0.1 mm 1 mps 744 mmHg 70%
12:00 +18°C° 0.1 mm 1 mps 744 mmHg 68%
13:00 +19°C° 0.1 mm 1 mps 744 mmHg 66%
14:00 +19°C° 0 mm 1 mps 744 mmHg 68%
15:00 +18°C° 0 mm 1 mps 744 mmHg 71%
16:00 +18°C° 0 mm 1 mps 744 mmHg 73%
17:00 +16°C° 0.2 mm 2 mps 744 mmHg 78%
18:00 +15°C° 0.2 mm 2 mps 744 mmHg 83%
19:00 +15°C° 0.2 mm 2 mps 744 mmHg 88%
20:00 +14°C° 0.3 mm 2 mps 744 mmHg 90%
21:00 +14°C° 0.3 mm 1 mps 744 mmHg 92%
22:00 +14°C° 0.3 mm 1 mps 744 mmHg 94%
23:00 +14°C° 0.1 mm 1 mps 744 mmHg 94%

Day after tomorrow, 30 September, Wednesday

Time Temperature Precipitation Wind Pressure Humidity
00:00 +14°C° 0.1 mm 2 mps 744 mmHg 93%
01:00 +14°C° 0.1 mm 2 mps 744 mmHg 92%
02:00 +12°C° 0.2 mm 3 mps 744 mmHg 91%
03:00 +12°C° 0.2 mm 3 mps 743 mmHg 90%
04:00 +11°C° 0.2 mm 4 mps 743 mmHg 89%
05:00 +11°C° 0 mm 4 mps 743 mmHg 88%
06:00 +11°C° 0 mm 4 mps 743 mmHg 86%
07:00 +11°C° 0 mm 4 mps 743 mmHg 85%
08:00 +12°C° 0.1 mm 4 mps 743 mmHg 85%
09:00 +12°C° 0.1 mm 4 mps 743 mmHg 85%
10:00 +12°C° 0.1 mm 4 mps 743 mmHg 84%
11:00 +12°C° 0.1 mm 4 mps 742 mmHg 85%
12:00 +13°C° 0.1 mm 4 mps 742 mmHg 85%
13:00 +13°C° 0.1 mm 5 mps 742 mmHg 85%
14:00 +13°C° 0.3 mm 5 mps 742 mmHg 86%
15:00 +13°C° 0.3 mm 5 mps 741 mmHg 87%
16:00 +13°C° 0.3 mm 5 mps 741 mmHg 88%
17:00 +13°C° 0.4 mm 4 mps 741 mmHg 89%
18:00 +13°C° 0.4 mm 4 mps 741 mmHg 90%
19:00 +13°C° 0.4 mm 3 mps 742 mmHg 91%
20:00 +12°C° 0 mm 3 mps 741 mmHg 90%
21:00 +12°C° 0 mm 3 mps 741 mmHg 90%
22:00 +12°C° 0 mm 3 mps 741 mmHg 90%
23:00 +11°C° 0 mm 3 mps 741 mmHg 90%

1 October, Thursday

Time Temperature Precipitation Wind Pressure Humidity
00:00 +11°C° 0 mm 3 mps 741 mmHg 90%
01:00 +11°C° 0 mm 3 mps 741 mmHg 90%
02:00 +11°C° 0 mm 3 mps 740 mmHg 90%
03:00 +11°C° 0 mm 3 mps 740 mmHg 89%
04:00 +10°C° 0 mm 3 mps 740 mmHg 89%
05:00 +10°C° 0 mm 3 mps 740 mmHg 89%
06:00 +10°C° 0 mm 3 mps 740 mmHg 88%
07:00 +10°C° 0 mm 3 mps 740 mmHg 88%
08:00 +11°C° 0 mm 3 mps 739 mmHg 84%
09:00 +12°C° 0 mm 3 mps 739 mmHg 81%
10:00 +12°C° 0 mm 3 mps 739 mmHg 78%
11:00 +12°C° 0 mm 3 mps 739 mmHg 79%
12:00 +12°C° 0 mm 3 mps 739 mmHg 81%
13:00 +12°C° 0 mm 3 mps 739 mmHg 82%
14:00 +12°C° 0 mm 3 mps 739 mmHg 83%
15:00 +13°C° 0 mm 2 mps 739 mmHg 83%
16:00 +13°C° 0 mm 2 mps 739 mmHg 84%
17:00 +13°C° 0 mm 2 mps 739 mmHg 88%
18:00 +12°C° 0 mm 2 mps 739 mmHg 91%
19:00 +10°C° 0 mm 2 mps 739 mmHg 95%
20:00 +10°C° 0 mm 2 mps 739 mmHg 95%
21:00 +10°C° 0 mm 2 mps 739 mmHg 95%
22:00 +11°C° 0 mm 1 mps 739 mmHg 96%
23:00 +10°C° 0 mm 2 mps 739 mmHg 96%

2 October, Friday

Time Temperature Precipitation Wind Pressure Humidity
00:00 +10°C° 0 mm 2 mps 739 mmHg 96%
01:00 +10°C° 0 mm 2 mps 739 mmHg 96%
02:00 +10°C° 0 mm 2 mps 739 mmHg 96%
03:00 +12°C° 0 mm 2 mps 739 mmHg 96%
04:00 +12°C° 0 mm 2 mps 739 mmHg 95%
05:00 +11°C° 0 mm 3 mps 739 mmHg 95%
06:00 +11°C° 0 mm 3 mps 739 mmHg 94%
07:00 +11°C° 0 mm 4 mps 739 mmHg 93%
08:00 +12°C° 0 mm 4 mps 740 mmHg 89%
09:00 +13°C° 0 mm 4 mps 740 mmHg 85%
10:00 +14°C° 0 mm 3 mps 740 mmHg 81%
11:00 +15°C° 0.1 mm 4 mps 740 mmHg 77%
12:00 +17°C° 0.1 mm 4 mps 740 mmHg 73%
13:00 +18°C° 0.1 mm 4 mps 740 mmHg 69%
14:00 +17°C° 0.1 mm 4 mps 740 mmHg 71%
15:00 +17°C° 0.1 mm 4 mps 740 mmHg 73%
16:00 +17°C° 0.1 mm 4 mps 740 mmHg 74%
17:00 +15°C° 0 mm 4 mps 740 mmHg 78%
18:00 +14°C° 0 mm 4 mps 740 mmHg 82%
19:00 +13°C° 0 mm 5 mps 740 mmHg 86%
20:00 +13°C° 0 mm 5 mps 740 mmHg 87%
21:00 +13°C° 0 mm 5 mps 740 mmHg 88%
22:00 +13°C° 0 mm 5 mps 740 mmHg 88%
23:00 +13°C° 0.1 mm 5 mps 740 mmHg 88%

3 October, Saturday

Time Temperature Precipitation Wind Pressure Humidity
00:00 +12°C° 0.1 mm 5 mps 740 mmHg 88%
01:00 +12°C° 0.1 mm 5 mps 740 mmHg 89%
02:00 +12°C° 0.8 mm 4 mps 739 mmHg 91%
03:00 +12°C° 0.8 mm 4 mps 739 mmHg 93%
04:00 +12°C° 0.8 mm 4 mps 739 mmHg 95%
05:00 +13°C° 0.4 mm 5 mps 739 mmHg 94%
06:00 +13°C° 0.4 mm 5 mps 738 mmHg 93%
07:00 +13°C° 0.4 mm 6 mps 738 mmHg 92%
08:00 +14°C° 0 mm 6 mps 738 mmHg 87%
09:00 +15°C° 0 mm 6 mps 738 mmHg 83%
10:00 +16°C° 0 mm 6 mps 738 mmHg 78%
11:00 +17°C° 0 mm 6 mps 738 mmHg 75%
12:00 +19°C° 0 mm 6 mps 738 mmHg 72%
13:00 +20°C° 0 mm 5 mps 738 mmHg 68%
14:00 +20°C° 0 mm 4 mps 738 mmHg 68%
15:00 +20°C° 0 mm 3 mps 738 mmHg 68%
16:00 +21°C° 0 mm 2 mps 738 mmHg 68%
17:00 +20°C° 0 mm 3 mps 738 mmHg 70%
18:00 +19°C° 0 mm 3 mps 738 mmHg 72%
19:00 +19°C° 0 mm 4 mps 738 mmHg 73%
20:00 +19°C° 0 mm 4 mps 737 mmHg 73%
21:00 +19°C° 0 mm 4 mps 737 mmHg 72%
22:00 +18°C° 0 mm 4 mps 737 mmHg 71%
23:00 +18°C° 0 mm 4 mps 737 mmHg 73%
Show more